SB KEPS @ AMSAT $ORB13150.N 2Line Orbital Elements 13150.AMSAT
HR AMSAT ORBITAL ELEMENTS FOR AMATEUR SATELLITES IN NASA FORMAT FROM WA5QGD FORT WORTH,TX May 30, 2013 BID: ORB13150.N
DECODE 2-LINE ELSETS WITH THE FOLLOWING KEY: 1 AAAAAU 00 0 0 BBBBB.BBBBBBBB .CCCCCCCC 00000-0 00000-0 0 DDDZ 2 AAAAA EEE.EEEE FFF.FFFF GGGGGGG HHH.HHHH III.IIII JJ.JJJJJJJJKKKKKZ KEY: A-CATALOGNUM B-EPOCHTIME C-DECAY D-ELSETNUM E-INCLINATION F-RAAN G-ECCENTRICITY H-ARGPERIGEE I-MNANOM J-MNMOTION K-ORBITNUM Z-CHECKSUM
TO ALL RADIO AMATEURS BT
AO-07 1 07530U 74089B 13150.86999484 -.00000027 00000-0 10159-3 0 6930 2 07530 101.4289 141.0055 0011590 324.2197 094.3962 12.53596488763619 FO-29 1 24278U 96046B 13150.77214845 -.00000039 00000-0 -28710-5 0 1298 2 24278 098.5572 211.6674 0350311 209.1075 267.9667 13.53001807828958 SO-33 1 25509U 98061B 13150.16004104 .00000558 00000-0 99478-4 0 5064 2 25509 031.4299 169.6887 0351202 000.0956 063.7247 14.29073013762317 RS-22 1 27939U 03042A 13150.75916946 .00000486 00000-0 10013-3 0 4559 2 27939 097.7987 339.5183 0012143 241.1874 118.8117 14.64457470516741 VO-52 1 28650U 05017B 13150.11442435 .00001181 00000-0 14773-3 0 4359 2 28650 097.5686 169.6444 0024870 343.3097 057.6479 14.83872788436409 HO-68 1 36122U 09072B 13150.72033336 -.00000044 00000-0 00000 0 0 5948 2 36122 100.3074 208.2135 0007634 037.5389 322.6259 13.16304646166115 UO-11 1 14781U 84021B 13149.79687150 .00000494 00000-0 70733-4 0 1923 2 14781 097.9045 211.3708 0008251 357.4702 002.6467 14.80893542571218 AO-16 1 20439U 90005D 13150.82621274 .00000085 00000-0 47338-4 0 7590 2 20439 098.4699 091.2572 0010590 204.0410 213.7487 14.32175926219753 LO-19 1 20442U 90005G 13149.88507447 .00000098 00000-0 51815-4 0 6928 2 20442 098.4389 092.1822 0011697 197.6018 198.9249 14.32387010219817 AO-27 1 22825U 93061C 13149.93342022 .00000074 00000-0 46117-4 0 3955 2 22825 098.6168 094.1520 0007905 349.9376 051.7993 14.29564970 26023 IO-26 1 22826U 93061D 13150.44055925 .00000087 00000-0 51030-4 0 1522 2 22826 098.6110 094.9442 0008274 340.7443 132.8674 14.29849378 26223 GO-32 1 25397U 98043D 13150.82641953 .00000050 00000-0 40398-4 0 835 2 25397 098.4125 119.3412 0001371 045.1289 014.7555 14.23342212773478 NO-44 1 26931U 01043C 13149.93929119 .00000072 00000-0 60029-4 0 3387 2 26931 067.0528 306.5478 0007397 282.8886 221.1940 14.29927488608818 SO-50 1 27607U 02058C 13150.00420796 .00000802 00000-0 14379-3 0 779 2 27607 064.5577 319.4907 0047451 169.9462 335.5432 14.72935316561030 CO-55 1 27844U 03031E 13149.62754764 .00000208 00000-0 11546-3 0 6594 2 27844 098.7003 158.9702 0008507 305.8513 172.8917 14.21219053514093 CO-57 1 27848U 03031J 13150.73860684 .00000186 00000-0 10633-3 0 6053 2 27848 098.7089 159.5687 0008493 309.1318 106.0904 14.20945028514186 AO-51 1 28375U 04025K 13150.48673769 .00000200 00000-0 72356-4 0 5698 2 28375 098.1995 106.6574 0084636 070.1816 047.3003 14.41118737468784 CP3 1 31129U 07012N 13150.44154414 .00000781 00000-0 18437-3 0 4732 2 31129 097.8963 144.0833 0101683 122.3806 005.3935 14.53645158324415 CO-65 1 32785U 08021C 13149.77493769 .00001017 00000-0 12864-3 0 6446 2 32785 097.7530 207.8333 0014047 014.0852 103.4484 14.83870732275146 PRISM 1 33493U 09002B 13150.77472205 .00003698 00000-0 42931-3 0 8545 2 33493 098.2147 307.1325 0017060 247.4230 112.5156 14.85950269235338 SOHLA-1 1 33496U 09002E 13150.36504668 .00000341 00000-0 64831-4 0 584 2 33496 098.1330 266.4320 0006703 030.5723 006.0322 14.70289737233256 SO-67 1 35870U 09049F 13150.74083390 .00006137 00000-0 23398-3 0 1053 2 35870 097.1921 180.1117 0003201 055.0973 036.8718 15.27030627205595 TISAT-1 1 36799U 10035E 13150.84909436 .00002769 00000-0 34428-3 0 1222 2 36799 098.0343 235.4349 0015710 122.0117 238.2573 14.83297847156006 STUDSAT 1 36801U 10035G 13149.84402968 .00005762 00000-0 62895-3 0 6367 2 36801 098.0445 237.3973 0012940 110.2903 029.3917 14.88253139156003 ALMASAT-1 1 38078U 12006B 13150.71535443 .00033684 00000-0 83617-3 0 3083 2 38078 069.4751 241.5663 0699070 169.5844 192.0518 14.24156154 66758 XATCOBEO 1 38082U 12006F 13150.68637567 .00082188 39888-5 16031-2 0 1889 2 38082 069.4707 218.8128 0581457 157.1656 348.5536 14.54179302 67370 SOMP 1 39135U 13015F 13150.74761080 .00005053 00000-0 41473-3 0 833 2 39135 064.8780 263.3416 0015342 208.6940 151.3316 15.00189902 6219 CUBEBUG-1 1 39153U 13018D 13150.78612871 .00001597 00000-0 23655-3 0 1082 2 39153 098.0747 226.5339 0019294 136.6780 223.5931 14.76411974 5110 ESTCUBE-1 1 39161U 13021C 13150.79445488 .00001272 00000-0 22558-3 0 714 2 39161 098.1288 229.1434 0010134 161.7068 198.4488 14.68946971 3449 NOAA-10 1 16969U 86073A 13150.17238209 .00000076 00000-0 48515-4 0 3711 2 16969 098.5464 178.4026 0011028 299.8044 101.7001 14.27641141389376 NOAA-11 1 19531U 88089A 13150.49279178 .00000017 00000-0 30971-4 0 3759 2 19531 098.7111 233.9425 0010202 315.0501 115.1070 14.15016761273623 NOAA-12 1 21263U 91032A 13150.50642311 .00000079 00000-0 52037-4 0 8458 2 21263 098.6978 176.0323 0012692 270.0917 212.7038 14.25567047146039 MET-3/5 1 21655U 91056A 13150.77742115 -.00000407 00000-0 -10894-2 0 7023 2 21655 082.5571 266.5902 0013967 169.0794 191.0635 13.17051153 47644 MET-2/21 1 22782U 93055A 13150.83996620 .00000061 00000-0 42077-4 0 7524 2 22782 082.5489 116.6851 0021119 256.5146 165.2197 13.83705750997241 OKEAN-4 1 23317U 94066A 13150.87255118 .00000812 00000-0 93348-4 0 2320 2 23317 082.5405 066.0012 0019492 283.6997 143.2702 14.84466811 6374 NOAA-14 1 23455U 94089A 13150.46553773 .00000014 00000-0 30586-4 0 3297 2 23455 098.8031 235.1723 0010111 054.1278 077.9208 14.13908204949865 NOAA-15 1 25338U 98030A 13150.47413110 .00000173 00000-0 92361-4 0 7480 2 25338 098.7229 140.7767 0010988 173.4395 338.3125 14.25222775782324 RESURS 1 25394U 98043A 13150.86705091 -.00000001 00000-0 17492-4 0 3873 2 25394 098.3597 127.5381 0000500 006.2866 049.3768 14.24331784773894 FENGYUN1 1 25730U 99025A 13149.87568885 .00001075 00000-0 62637-3 0 8837 2 25730 098.8761 109.6134 0026716 096.6420 316.9325 14.10516821723461 OKEAN-0 1 25860U 99039A 13150.48676648 .00000421 00000-0 70705-4 0 9585 2 25860 097.9882 113.1753 0001500 132.7935 015.7039 14.74600543745749 NOAA-16 1 26536U 00055A 13150.43406568 .00000203 00000-0 13359-3 0 2282 2 26536 099.0443 203.0230 0010908 180.4385 305.5893 14.12878396654063 NOAA-17 1 27453U 02032A 13150.44725206 .00000090 00000-0 56240-4 0 1462 2 27453 098.3124 165.4695 0011272 212.0862 251.0266 14.24592054568197 NOAA-18 1 28654U 05018A 13150.44944602 .00000049 00000-0 51936-4 0 6305 2 28654 099.0976 118.4127 0013271 257.3045 261.7896 14.11821819413554 NOAA-19 1 33591U 09005A 13150.46032184 .00000191 00000-0 12931-3 0 8161 2 33591 098.9023 092.6656 0015188 118.4869 019.1888 14.11506914221998 HUBBLE 1 20580U 90037B 13150.80758351 .00001749 00000-0 11254-3 0 2519 2 20580 028.4712 026.7633 0003064 161.9075 284.6081 15.03645162 67072 ISS 1 25544U 98067A 13150.89969907 .00008308 00000-0 15007-3 0 9071 2 25544 051.6478 194.0638 0010208 016.2187 328.1468 15.50595058832019 CO-58 1 28895U 05043F 13150.61887254 .00000561 00000-0 12279-3 0 4884 2 28895 097.8725 006.7992 0018827 134.9184 225.3549 14.61109356404375 FALCON 1 30776U 07006E 13150.84041661 .00004765 00000-0 28512-3 0 6244 2 30776 035.4314 308.6814 0001291 194.3339 311.8671 15.10566853342792 MAST 1 31126U 07012K 13150.88051830 .00000602 00000-0 14282-3 0 7677 2 31126 097.8800 147.7910 0094771 106.6748 318.2158 14.54562848324808 CAPE1 1 31130U 07012P 13149.94123759 .00000770 00000-0 18247-3 0 7746 2 31130 097.8968 143.2509 0102108 124.8480 236.2372 14.53471869324125 COMPASS 1 32787U 08021E 13150.75868015 .00002261 00000-0 26780-3 0 6363 2 32787 097.7541 209.7724 0014387 007.4158 352.7267 14.85465135275379 AAUSAT2 1 32788U 08021F 13150.16667097 .00002168 00000-0 25430-3 0 6228 2 32788 097.7548 209.8098 0013988 009.2098 350.9371 14.85922255275323 DO-64 1 32789U 08021G 13150.83418101 .00003536 00000-0 38586-3 0 6511 2 32789 097.7693 214.1318 0013080 359.7602 053.0405 14.88499211275543 CO-66 1 32791U 08021J 13150.17972292 .00001447 00000-0 17720-3 0 6209 2 32791 097.7544 208.5954 0014819 010.0462 023.5015 14.84610927275203 RS-30 1 32953U 08025A 13150.75577304 .00000010 00000-0 00000 0 0 8994 2 32953 082.5024 079.0309 0017414 273.0601 086.8491 12.43034286227740 METEOR-M 1 35865U 09049A 13150.70402815 .00000009 00000-0 23470-4 0 4956 2 35865 098.6033 203.5553 0003229 114.2385 245.9117 14.21887215191987 RS-38 1 35869U 09049E 13150.74032524 .00000083 00000-0 56953-4 0 4583 2 35869 098.5984 203.5120 0005302 118.2408 241.9300 14.22130572192012 JUGNU 1 37839U 11058B 13150.84534058 .00000416 00000-0 80592-4 0 3973 2 37839 019.9628 051.8590 0019118 092.3128 327.0136 14.12157516 84445 SRMSAT 1 37841U 11058D 13150.88182699 .00000383 00000-0 66415-4 0 3993 2 37841 019.9730 063.3492 0012027 047.6644 023.2639 14.10227013 84327 RAX-2 1 37853U 11061D 13149.69289630 .00004729 00000-0 36027-3 0 5142 2 37853 101.7160 354.7569 0235578 080.5248 345.3874 14.83523269 85707 AUBIESAT 1 37854U 11061E 13150.53292979 .00004370 00000-0 32697-3 0 5105 2 37854 101.7197 356.8167 0235563 076.7859 337.4244 14.84237342 85847 HRBE 1 37855U 11061F 13150.59704083 .00004268 00000-0 32131-3 0 5082 2 37855 101.7198 356.6850 0236568 077.0533 318.4123 14.83905516 85844 RS-39 1 38051U 11062C 13150.86251196 .00016784 00000-0 53944-3 0 4893 2 38051 051.6375 294.1805 0011994 202.1569 318.6881 15.32314980 75120 E-STAR 1 38079U 12006C 13150.71629719 .00060903 34647-5 12643-2 0 1669 2 38079 069.4747 224.6095 0618203 160.4476 335.3616 14.45209980 67217 GOLIAT 1 38085U 12006J 13150.62419736 .00063725 34970-5 12964-2 0 818 2 38085 069.4758 226.8646 0629920 161.6082 318.7488 14.43122137 67146 HORYU-2 1 38340U 12025D 13150.41723730 .00001386 00000-0 23448-3 0 5094 2 38340 098.2155 097.9179 0011737 313.9843 046.0381 14.70923885 55506 RS-40 1 38736U 12041D 13150.60460489 .00000010 00000-0 00000 0 0 2838 2 38736 082.4778 166.0862 0021789 009.1145 351.0336 12.42868319 38063 PROITERES 1 38756U 12047B 13150.73950240 .00000863 00000-0 13858-3 0 8256 2 38756 098.2530 227.4607 0012914 156.7590 203.4187 14.74216469 38826 RAIKO 1 38852U 98067CN 13150.47458156 .00089465 00000-0 55665-3 0 2384 2 38852 051.6371 179.8633 0013157 331.4560 028.5718 15.76088159 37075 FITSAT 1 1 38853U 98067CP 13150.33192380 .00200770 00000-0 74326-3 0 2417 2 38853 051.6392 175.9137 0012723 355.5233 004.5656 15.86909216 37169 TechEdSat 1 38854U 98067CQ 13124.93253577 .11592855 12481-4 94246-3 0 2908 2 38854 051.6449 297.0261 0010505 310.8629 049.0629 16.38844728 33294 F 1 1 38855U 98067CR 13129.77714356 .27424026 12535-4 30797-3 0 2871 2 38855 051.5085 272.4145 0008326 194.2908 166.5495 16.49710473 33949 WeWish 1 38856U 98067CS 13069.98095549 .16701328 12537-4 10063-2 0 2487 2 38856 051.6166 215.0521 0008325 316.0438 044.8765 16.41348316 24586 OSSI-1 1 39131U 13015B 13113.49391669 .00171511 13909-4 85875-3 0 37 2 39131 064.8913 019.7169 0213781 058.2074 115.1737 15.55484603 636 BEESAT-3 1 39134U 13015E 13150.74725545 .00005605 00000-0 45809-3 0 1008 2 39134 064.8772 263.3393 0015338 208.8251 151.1994 15.00226515 6217 BEESAT-2 1 39136U 13015G 13150.74699170 .00004972 00000-0 40805-3 0 998 2 39136 064.8779 263.3384 0015442 208.9509 151.0744 15.00211118 6214 /EX